Temperature
23 23 23 24 24 25 25 24 24 25 26 25 24 23 23 24 24 24 23 23 23 23 23 23 22 22 22 21 21 20 20 19 19 18 18 17 17 17 16 16 15 15 15 15
23 23 25 25 25 25 25 24 24 25 25 25 24 24 24 24 24 24 24 23 23 23 23 22 22 22 21 21 21 20 20 19 19 18 18 17 17 17 16 16 16 15 15 15
23 24 26 26 25 25 25 24 24 24 25 25 24 23 24 24 24 23 23 23 23 22 22 22 22 21 21 21 20 20 20 19 19 18 18 17 17 17 16 16 16 15 15 15
23 25 25 25 25 25 24 25 25 25 24 23 24 22 23 24 23 23 23 22 22 22 21 21 21 21 21 20 20 20 20 19 19 18 18 18 17 17 16 16 16 16 15 15
23 24 25 24 24 25 25 26 26 25 24 24 24 23 23 24 23 23 23 22 22 21 21 20 20 20 20 20 20 20 19 19 19 18 18 17 17 17 16 16 16 16 16 15
24 25 25 25 25 25 26 26 25 25 24 23 24 23 22 23 23 23 23 22 21 21 20 20 20 20 20 19 19 19 19 19 18 18 17 17 17 16 16 16 16 16 16 15
24 25 25 25 25 25 25 24 23 22 22 23 25 23 22 23 24 23 23 22 21 21 20 19 19 19 19 19 18 18 18 18 18 17 17 17 17 16 16 16 16 16 16 15
23 23 25 25 25 24 24 23 22 22 22 24 25 23 22 24 23 23 22 22 21 20 20 19 19 18 18 18 18 18 17 17 17 17 17 17 16 16 16 16 16 16 15 15
24 24 25 25 26 25 24 23 24 24 24 24 23 22 22 23 23 22 22 21 20 20 19 19 18 18 18 18 18 17 17 17 17 17 17 16 16 16 16 16 16 16 15 15
25 24 25 26 26 26 25 26 25 25 24 23 23 22 22 22 22 22 22 21 20 19 19 18 18 18 17 17 17 17 17 17 17 17 17 16 16 16 16 16 16 15 15 15
26 25 25 25 25 26 26 26 26 26 26 24 23 22 24 22 22 22 21 21 20 19 19 18 17 17 17 17 17 17 17 17 17 17 16 16 16 16 16 16 15 15 15 15
26 26 25 25 27 27 27 27 26 25 25 25 24 21 24 23 22 22 21 20 20 19 18 18 17 17 17 16 16 16 16 16 16 16 16 16 16 15 15 15 15 15 15 15
26 26 25 25 25 26 26 26 26 26 25 25 24 21 23 23 22 21 21 20 19 19 18 17 17 17 16 16 16 16 16 16 15 15 15 15 15 15 15 15 15 15 15 15
24 26 25 24 25 26 26 26 26 26 25 25 24 22 22 22 21 21 20 20 19 19 18 17 17 17 16 16 16 16 16 15 15 15 15 15 15 15 15 15 14 14 14 15
26 26 26 26 26 26 26 26 26 25 25 25 24 23 22 22 21 21 20 19 19 18 18 17 17 16 16 16 16 16 15 15 15 15 15 15 15 14 14 14 14 14 14 14
26 26 26 26 26 26 25 25 25 25 25 25 24 23 23 22 21 20 20 19 19 18 17 17 16 16 16 16 16 15 15 15 15 15 14 14 14 14 14 14 14 14 14 14
26 26 25 25 26 25 24 25 25 25 25 25 24 23 22 21 21 20 20 19 18 17 17 16 16 16 16 16 15 15 15 15 15 14 14 14 14 14 13 13 13 13 13 13
25 26 25 25 25 23 24 26 26 25 25 25 24 23 22 21 20 20 19 18 17 17 16 16 16 15 15 15 15 15 15 15 14 14 14 13 13 13 13 13 13 13 13 13
25 24 24 24 24 24 24 25 25 24 23 24 23 23 22 21 20 19 18 18 17 16 16 15 15 15 15 15 14 14 14 14 14 14 13 13 13 13 13 13 13 12 12 12
24 24 24 24 23 24 24 25 25 24 22 24 23 22 21 20 19 18 18 17 16 16 15 15 15 14 14 14 14 14 14 14 13 13 13 12 12 12 12 12 12 12 12 12
22 22 22 22 23 24 24 24 23 22 22 23 23 22 21 20 19 18 17 16 16 15 15 14 14 14 14 13 13 13 13 13 13 12 12 12 12 12 12 12 12 12 12 12
24 23 23 23 23 23 23 23 23 23 23 22 22 21 20 19 18 17 16 15 15 14 14 14 13 13 13 13 13 12 12 12 12 12 12 12 11 11 12 11 11 11 11 11
25 24 24 23 22 22 22 22 22 22 22 21 21 20 19 18 17 16 15 15 14 14 14 13 13 13 12 12 12 12 12 12 11 11 11 11 11 11 11 11 11 11 11 10
25 25 23 23 22 21 21 21 20 20 20 20 20 19 18 17 16 16 15 14 14 13 13 13 13 12 12 12 11 11 11 11 11 11 10 10 10 11 11 10 10 10 10 10
23 23 22 22 22 21 20 20 19 19 19 19 19 18 17 17 16 15 15 14 14 13 13 12 12 12 12 11 11 11 11 11 10 10 10 10 10 10 10 10 10 10 9 9
23 22 21 21 22 21 20 19 19 18 18 18 17 17 16 16 15 15 14 14 13 13 12 12 12 12 11 11 11 11 10 10 10 10 9 9 9 9 9 9 9 9 9 9
Wind_Speed
9 7 7 8 9 5 4 5 6 7 8 7 9 8 7 6 4 4 4 3 3 5 4 5 6 6 5 5 6 6 6 6 5 2 1 1 1 1 2 1 3 3 3 4
6 7 6 6 4 3 3 5 6 7 7 7 9 8 8 8 6 3 4 5 5 5 5 6 6 6 5 4 4 5 5 6 6 3 2 2 2 0 1 0 2 2 3 3
5 4 5 5 5 5 4 5 6 8 7 8 8 7 8 9 8 6 6 6 6 6 6 6 5 5 4 4 3 3 3 6 6 5 2 1 1 1 0 1 1 1 0 1
2 3 5 4 3 4 4 5 7 8 6 5 6 6 8 9 7 7 6 6 6 6 7 6 5 5 4 3 2 3 3 4 5 5 2 1 1 0 0 0 1 1 1 1
3 4 4 4 2 2 3 4 5 6 5 6 6 5 6 7 7 6 6 6 7 7 7 6 5 5 5 5 4 3 4 4 4 4 3 1 1 1 1 1 0 1 1 1
6 4 2 2 2 2 4 5 4 3 3 4 7 5 5 5 6 7 7 7 7 7 7 7 6 6 6 6 5 5 5 5 3 2 2 2 1 2 2 2 1 2 1 1
7 6 4 3 4 4 4 3 3 3 3 4 8 6 6 8 9 8 8 8 8 7 7 7 7 6 6 6 5 4 4 3 2 1 1 2 1 2 2 2 1 2 2 0
6 7 5 3 2 3 4 2 1 3 4 5 6 7 8 9 9 9 9 8 8 8 8 8 7 6 5 5 4 4 3 3 1 1 1 1 1 2 1 2 2 2 2 1
3 6 7 4 3 2 3 5 6 4 3 4 7 9 9 8 9 9 9 8 8 8 8 7 6 6 5 5 4 3 3 3 2 1 1 1 1 1 1 2 2 2 3 2
2 6 8 5 5 4 5 5 3 4 3 4 9 9 7 9 8 8 8 7 7 7 7 7 6 6 5 4 3 3 3 2 2 2 2 2 1 1 2 2 3 3 4 3
3 4 8 7 4 4 5 4 2 3 1 2 4 5 8 9 8 8 7 7 6 6 6 6 5 5 4 4 4 3 2 2 2 2 2 2 2 2 2 2 2 3 4 4
2 2 6 8 5 2 4 3 2 2 1 1 3 5 8 9 8 8 8 7 7 6 6 6 5 5 4 4 3 3 3 2 2 2 2 3 3 3 3 3 3 4 4 4
4 3 4 7 6 5 3 3 4 4 3 2 2 7 9 9 9 8 7 7 6 6 6 6 5 4 3 3 3 3 3 3 2 2 2 3 3 3 3 4 4 5 6 5
3 4 2 2 1 5 5 3 3 4 3 1 4 10 11 9 8 8 7 7 6 6 6 6 4 4 3 3 2 2 2 2 2 2 2 2 3 3 3 4 5 5 6 7
5 5 3 1 1 1 3 4 4 4 4 1 5 10 11 10 9 8 7 6 6 5 5 5 4 3 3 2 2 3 2 2 2 2 2 3 4 3 3 4 4 5 6 8
6 5 4 4 4 3 4 5 5 3 2 2 5 6 9 10 9 7 7 6 5 5 5 5 4 4 4 4 3 4 4 3 2 2 2 2 4 4 3 4 4 5 6 7
6 7 7 6 6 6 8 9 8 6 5 5 5 6 12 11 9 7 7 6 5 5 5 4 4 4 4 5 4 4 4 4 3 3 3 2 3 4 4 5 5 5 6 6
7 8 5 5 6 8 2 4 4 5 4 4 5 10 11 9 7 6 7 6 5 5 4 3 4 4 4 5 5 5 5 5 4 4 4 4 3 4 4 5 6 6 6 6
8 7 5 6 7 5 5 6 6 5 5 6 7 10 10 10 7 6 6 6 5 5 4 3 3 4 5 6 7 7 6 6 6 5 5 5 5 5 5 6 6 6 6 7
7 7 6 6 7 5 4 10 7 4 5 8 9 10 10 10 6 5 6 6 6 5 4 3 3 4 5 5 6 6 6 6 7 7 7 6 6 6 6 6 6 6 6 7
7 7 10 9 7 1 8 11 8 5 3 9 10 10 10 7 3 6 8 7 5 4 3 3 3 3 4 5 5 5 6 7 7 7 7 7 7 7 7 6 5 6 6 6
8 7 8 8 8 4 11 9 5 4 7 8 8 8 7 7 8 8 7 6 5 4 3 2 2 2 3 4 4 5 5 6 6 6 7 7 7 8 7 6 6 6 6 7
5 3 1 2 2 7 6 5 6 6 7 7 6 7 8 8 8 7 6 5 4 3 2 2 1 1 2 3 4 5 6 6 7 7 7 7 8 7 6 6 5 6 6 5
4 1 2 0 6 7 6 6 5 4 4 5 5 7 7 6 7 6 5 4 3 3 2 1 0 1 2 3 3 4 5 6 7 7 7 7 7 7 7 6 5 5 5 6
1 1 3 5 3 5 6 6 6 5 4 4 4 5 6 5 5 4 4 3 3 2 2 1 1 2 3 3 3 4 5 6 7 7 7 7 6 7 7 6 6 7 6 6
5 5 6 4 4 4 6 7 8 7 6 5 5 5 5 4 4 4 3 3 2 2 1 1 1 2 3 4 4 4 4 5 7 7 6 5 6 6 6 7 8 9 10 13
Wind_Direction
194 206 204 195 211 242 218 177 149 136 141 142 128 123 113 110 99 108 117 106 104 125 141 137 133 135 133 134 135 133 149 143 124 111 94 80 69 13 57 57 60 13 357 5
192 210 210 194 203 223 186 138 135 130 142 141 128 120 112 108 101 86 82 87 89 96 110 115 131 139 146 145 142 141 147 136 130 139 144 153 111 12 130 141 89 6 3 15
192 186 195 178 188 184 142 145 152 140 140 131 125 115 110 101 82 68 54 57 74 83 90 91 97 111 121 131 141 131 133 139 140 145 125 72 78 291 343 161 134 219 280 56
194 177 174 167 160 132 143 164 159 150 152 154 152 131 115 109 94 78 63 59 62 72 82 86 81 86 85 81 95 127 134 136 132 134 129 168 199 228 243 189 181 227 121 118
155 140 152 154 144 153 138 159 168 172 179 161 161 130 111 110 95 86 83 75 70 69 76 87 81 85 76 64 53 47 85 88 103 115 134 231 309 317 352 357 21 299 184 209
136 134 130 124 139 178 153 170 184 192 191 178 164 143 109 95 93 91 85 84 78 73 70 74 74 72 71 68 58 50 65 67 86 116 154 186 249 305 325 319 309 293 246 203
139 144 146 172 165 178 195 183 164 181 193 176 153 117 98 83 81 83 82 80 81 77 76 73 70 67 69 73 70 70 75 76 100 149 215 204 218 263 268 279 282 290 293 284
158 154 159 183 199 174 198 212 217 187 177 155 139 107 106 97 87 83 78 76 78 76 73 72 70 68 66 70 72 70 73 73 81 228 253 222 230 261 272 304 306 299 303 297
175 152 155 177 227 236 208 203 224 242 197 154 119 115 120 114 103 93 87 81 76 76 73 71 65 64 64 61 58 68 66 60 42 322 304 283 278 310 324 311 307 310 304 303
207 149 156 172 225 219 253 259 218 213 178 141 139 147 150 139 121 107 97 90 86 87 84 80 71 64 61 63 59 61 73 57 38 4 331 337 338 334 322 302 312 318 312 316
224 173 164 174 211 224 216 231 259 276 207 144 140 104 122 131 125 116 105 95 91 88 86 81 75 68 62 61 59 53 48 49 38 3 343 349 349 337 324 305 304 290 285 287
217 243 191 180 180 285 302 304 320 313 313 166 122 111 112 118 115 111 104 98 93 88 88 85 77 71 63 55 51 51 36 29 38 5 358 356 3 344 328 315 311 305 296 289
328 250 193 172 170 198 223 294 313 306 291 255 143 132 135 126 119 111 107 100 96 92 86 81 75 66 54 46 39 39 33 17 29 22 5 6 350 336 326 327 324 316 315 312
296 275 283 249 189 182 187 205 275 293 284 286 119 136 146 136 128 118 113 106 98 92 83 78 71 64 51 37 28 28 21 12 16 27 2 346 328 327 321 321 321 324 327 320
261 268 257 212 89 144 177 195 226 265 282 284 129 141 150 146 137 130 123 113 104 92 82 75 65 54 45 42 25 22 12 6 2 13 350 329 323 328 325 322 318 323 322 316
251 267 256 236 197 210 230 224 222 233 248 149 134 127 131 133 132 135 132 121 108 93 78 67 52 38 23 24 21 18 2 356 347 356 345 329 325 328 320 315 313 315 310 307
235 255 263 252 207 213 235 218 211 211 199 193 190 144 135 138 144 146 133 123 114 97 79 60 46 36 18 13 15 11 359 347 346 354 346 330 324 321 316 313 308 300 296 294
276 269 265 256 223 237 131 94 156 188 190 178 138 134 142 140 135 126 121 120 112 101 87 63 43 32 17 14 13 8 4 355 357 2 346 332 324 317 313 306 297 290 292 294
253 273 274 262 254 231 177 163 162 175 191 167 148 141 140 135 133 129 120 116 110 101 93 75 41 31 21 19 10 1 2 4 7 4 347 338 331 316 302 294 289 286 289 289
236 252 257 262 258 262 143 139 143 171 197 168 158 150 149 155 174 166 134 118 108 95 86 79 51 32 22 12 4 358 356 3 2 354 341 333 322 308 297 290 287 286 282 279
197 219 233 253 258 235 119 128 144 191 178 148 153 153 161 175 147 127 130 121 113 102 89 79 64 42 20 4 358 357 356 352 345 338 329 319 312 305 295 288 290 292 289 287
193 202 212 225 241 213 139 155 175 126 109 128 137 145 148 125 111 116 122 123 122 115 105 88 65 41 13 360 353 351 347 337 331 325 319 312 308 306 308 297 290 293 296 295
220 240 244 208 114 95 124 111 92 104 125 128 133 132 131 131 133 130 132 133 133 131 124 109 76 18 350 354 356 340 333 329 325 323 319 313 312 311 309 307 304 300 295 291
212 208 286 228 144 146 137 124 114 103 107 111 123 133 139 141 143 143 144 146 146 148 142 136 121 321 328 344 342 331 328 326 324 322 320 317 319 321 323 320 308 302 299 296
349 120 237 251 186 150 168 167 154 146 139 134 129 131 138 141 149 150 154 157 157 155 151 166 237 295 308 319 316 321 327 326 320 318 320 321 319 317 316 312 308 304 292 286
252 237 231 237 209 203 179 168 164 166 169 162 152 146 145 152 159 160 164 159 157 169 187 214 243 274 295 307 310 318 322 318 317 318 321 319 314 311 312 311 310 303 294 292
Height
1489 1490 1490 1488 1486 1485 1486 1490 1493 1492 1490 1494 1500 1503 1504 1505 1505 1507 1508 1509 1510 1512 1514 1516 1518 1520 1522 1524 1524 1525 1526 1527 1526 1526 1526 1526 1526 1526 1525 1525 1524 1523 1522 1521
1489 1489 1483 1481 1482 1483 1486 1491 1494 1492 1490 1495 1501 1504 1503 1505 1507 1508 1509 1510 1511 1512 1514 1516 1518 1520 1522 1523 1524 1525 1526 1526 1526 1526 1526 1526 1526 1525 1525 1524 1523 1522 1521 1520
1489 1485 1480 1481 1484 1486 1488 1493 1494 1496 1493 1495 1501 1509 1506 1506 1508 1510 1511 1511 1512 1514 1515 1517 1518 1520 1522 1523 1524 1525 1525 1525 1525 1525 1525 1525 1525 1525 1525 1524 1523 1522 1521 1520
1488 1482 1481 1483 1485 1487 1493 1486 1488 1492 1499 1506 1506 1522 1512 1508 1510 1512 1513 1513 1514 1515 1516 1517 1519 1520 1521 1522 1523 1524 1525 1525 1525 1525 1524 1524 1525 1525 1524 1524 1523 1522 1521 1520
1488 1484 1484 1488 1487 1486 1489 1484 1486 1491 1498 1506 1507 1516 1517 1509 1513 1514 1514 1515 1516 1516 1517 1518 1519 1520 1521 1521 1522 1523 1524 1524 1524 1524 1524 1524 1524 1524 1524 1524 1523 1522 1521 1520
1484 1484 1485 1486 1485 1485 1485 1487 1489 1491 1499 1516 1509 1516 1523 1514 1514 1514 1515 1516 1517 1518 1518 1519 1520 1520 1521 1521 1521 1522 1523 1523 1523 1523 1523 1523 1523 1523 1523 1523 1522 1522 1521 1520
1488 1486 1485 1485 1488 1488 1489 1497 1511 1518 1519 1517 1501 1512 1522 1513 1512 1514 1516 1517 1518 1519 1520 1520 1520 1521 1521 1522 1522 1522 1522 1522 1522 1523 1523 1523 1523 1523 1522 1522 1522 1521 1521 1519
1494 1496 1487 1486 1488 1491 1493 1500 1517 1525 1521 1510 1500 1516 1519 1512 1514 1516 1518 1519 1520 1521 1521 1521 1522 1522 1522 1522 1522 1522 1522 1522 1522 1522 1522 1523 1522 1522 1522 1521 1521 1520 1520 1519
1491 1493 1484 1484 1485 1488 1494 1498 1495 1501 1502 1507 1511 1516 1516 1513 1515 1517 1519 1520 1521 1522 1522 1523 1523 1523 1523 1522 1522 1522 1522 1522 1521 1521 1521 1521 1521 1521 1521 1520 1520 1519 1518 1518
1483 1490 1485 1484 1484 1484 1486 1484 1489 1498 1510 1517 1516 1517 1520 1517 1517 1518 1520 1521 1522 1523 1524 1524 1524 1524 1523 1523 1523 1522 1522 1521 1521 1521 1521 1520 1520 1520 1519 1519 1518 1518 1517 1516
1478 1486 1487 1485 1487 1486 1484 1485 1486 1487 1490 1508 1521 1523 1505 1511 1514 1517 1519 1521 1523 1524 1524 1524 1524 1524 1524 1523 1523 1522 1522 1521 1520 1520 1520 1519 1519 1519 1518 1518 1517 1516 1515 1514
1477 1482 1487 1484 1479 1478 1478 1480 1483 1496 1496 1495 1508 1524 1505 1509 1513 1516 1519 1521 1523 1524 1524 1524 1524 1524 1524 1523 1522 1522 1521 1520 1520 1519 1519 1519 1518 1517 1517 1516 1515 1515 1514 1513
1478 1481 1491 1493 1490 1483 1482 1481 1481 1484 1489 1494 1507 1521 1506 1510 1513 1516 1519 1521 1523 1524 1524 1524 1524 1524 1524 1523 1523 1522 1521 1520 1520 1519 1518 1518 1517 1516 1515 1514 1514 1513 1512 1511
1481 1480 1488 1497 1489 1482 1484 1485 1483 1487 1495 1496 1499 1510 1508 1510 1513 1516 1519 1521 1522 1524 1524 1524 1524 1524 1524 1523 1522 1522 1521 1520 1519 1518 1517 1517 1516 1515 1514 1513 1512 1511 1509 1508
1478 1480 1479 1478 1476 1477 1481 1484 1485 1487 1488 1494 1498 1502 1505 1508 1512 1516 1518 1520 1522 1523 1524 1524 1524 1524 1523 1523 1522 1521 1520 1519 1518 1517 1516 1515 1515 1514 1513 1511 1510 1508 1507 1506
1476 1478 1478 1480 1477 1479 1483 1483 1484 1487 1487 1491 1495 1501 1501 1506 1511 1515 1517 1520 1521 1523 1524 1524 1524 1523 1523 1522 1521 1520 1519 1518 1517 1516 1515 1514 1513 1512 1510 1509 1507 1506 1504 1503
1474 1477 1481 1484 1478 1482 1489 1481 1483 1485 1485 1489 1495 1498 1500 1506 1510 1513 1516 1518 1520 1522 1523 1523 1523 1523 1522 1521 1520 1519 1518 1517 1516 1515 1513 1512 1511 1509 1508 1506 1505 1503 1501 1500
1476 1476 1479 1481 1485 1497 1485 1473 1476 1481 1484 1485 1489 1494 1499 1504 1509 1512 1515 1517 1519 1520 1521 1522 1522 1522 1521 1520 1519 1518 1517 1515 1514 1513 1511 1510 1508 1507 1505 1503 1502 1500 1499 1497
1475 1478 1482 1482 1486 1483 1480 1475 1477 1483 1486 1485 1489 1494 1499 1504 1508 1512 1514 1516 1517 1519 1520 1520 1521 1520 1520 1519 1518 1516 1515 1514 1512 1511 1509 1507 1506 1504 1502 1500 1498 1497 1495 1493
1476 1477 1483 1482 1489 1489 1476 1471 1475 1481 1489 1484 1487 1493 1498 1502 1508 1510 1512 1514 1515 1517 1518 1518 1519 1518 1518 1517 1516 1515 1513 1512 1510 1508 1506 1505 1503 1501 1499 1497 1495 1493 1491 1489
1480 1481 1484 1486 1485 1477 1472 1473 1477 1491 1487 1482 1486 1491 1496 1499 1503 1506 1509 1511 1513 1514 1516 1516 1516 1516 1516 1515 1514 1512 1511 1510 1508 1506 1504 1502 1500 1498 1496 1494 1492 1490 1487 1485
1472 1476 1478 1480 1485 1482 1473 1475 1478 1480 1480 1482 1486 1491 1495 1498 1501 1504 1507 1509 1511 1512 1513 1514 1514 1514 1513 1512 1511 1510 1508 1507 1505 1503 1500 1498 1496 1494 1492 1490 1488 1486 1483 1481
1462 1464 1466 1469 1475 1472 1472 1474 1476 1478 1481 1484 1487 1491 1494 1497 1500 1503 1506 1508 1509 1510 1511 1511 1512 1511 1511 1510 1509 1507 1506 1504 1502 1499 1497 1495 1493 1491 1489 1486 1484 1481 1479 1477
1458 1460 1464 1467 1470 1471 1474 1476 1478 1480 1482 1484 1487 1490 1493 1496 1499 1501 1504 1506 1507 1508 1509 1509 1509 1509 1508 1508 1506 1504 1503 1501 1499 1496 1494 1492 1489 1487 1484 1482 1480 1478 1475 1473
1460 1462 1465 1467 1469 1471 1474 1475 1478 1480 1482 1485 1487 1489 1492 1494 1497 1499 1501 1503 1504 1506 1506 1506 1506 1506 1505 1504 1503 1501 1499 1497 1495 1493 1491 1488 1486 1483 1480 1478 1476 1473 1471 1469
1461 1463 1466 1467 1466 1468 1470 1473 1476 1479 1481 1484 1486 1488 1491 1493 1495 1497 1499 1500 1502 1503 1503 1503 1503 1503 1502 1501 1499 1498 1496 1494 1491 1489 1487 1484 1481 1479 1476 1473 1470 1468 1466 1464